• în România
  • Lista ţărilor
  • Pe 7 zile
  • Temperatura apei
  • Hartă satelitară
  • Meteo pe hartă
  • Widget-uri
  • user-avatar
    Intrare

    Meteo pe oră la Dalat

    Astăzi, 23 Mai, Miercuri

    Timp Temperatura Precipitaţii Vânt Presiune Umiditate
    00:00 +18°C° 0,1 mm 0 m/s 652 mmHg 94%
    01:00 +17°C° 0 mm 0 m/s 652 mmHg 93%
    02:00 +17°C° 0 mm 0 m/s 652 mmHg 93%
    03:00 +17°C° 0 mm 0 m/s 652 mmHg 93%
    04:00 +17°C° 0 mm 0 m/s 652 mmHg 93%
    05:00 +18°C° 0 mm 0 m/s 652 mmHg 90%
    06:00 +19°C° 0 mm 0 m/s 652 mmHg 87%
    07:00 +20°C° 0 mm 0 m/s 653 mmHg 82%
    08:00 +24°C° 0,1 mm 1 m/s 654 mmHg 73%
    09:00 +26°C° 0,1 mm 1 m/s 654 mmHg 63%
    10:00 +28°C° 0,1 mm 1 m/s 655 mmHg 53%
    11:00 +28°C° 1 mm 1 m/s 654 mmHg 57%
    12:00 +28°C° 1 mm 1 m/s 654 mmHg 61%
    13:00 +27°C° 0 mm 2 m/s 654 mmHg 66%
    14:00 +26°C° 1,4 mm 1 m/s 653 mmHg 70%
    15:00 +26°C° 1,4 mm 1 m/s 652 mmHg 74%
    16:00 +25°C° 1,4 mm 1 m/s 652 mmHg 78%
    17:00 +24°C° 0,8 mm 1 m/s 652 mmHg 82%
    18:00 +22°C° 0,8 mm 1 m/s 651 mmHg 87%
    19:00 +21°C° 0,8 mm 1 m/s 651 mmHg 91%
    20:00 +21°C° 0,5 mm 1 m/s 652 mmHg 92%
    21:00 +21°C° 0,5 mm 1 m/s 652 mmHg 94%
    22:00 +20°C° 0,5 mm 1 m/s 652 mmHg 95%
    23:00 +20°C° 0 mm 1 m/s 652 mmHg 95%

    Mâine, 24 Mai, Joi

    Timp Temperatura Precipitaţii Vânt Presiune Umiditate
    00:00 +18°C° 0 mm 0 m/s 652 mmHg 95%
    01:00 +18°C° 0 mm 0 m/s 651 mmHg 95%
    02:00 +17°C° 0 mm 0 m/s 651 mmHg 95%
    03:00 +17°C° 0 mm 0 m/s 651 mmHg 94%
    04:00 +17°C° 0 mm 0 m/s 651 mmHg 94%
    05:00 +18°C° 0 mm 0 m/s 651 mmHg 89%
    06:00 +19°C° 0 mm 0 m/s 652 mmHg 85%
    07:00 +20°C° 0 mm 0 m/s 652 mmHg 81%
    08:00 +23°C° 0 mm 0 m/s 653 mmHg 70%
    09:00 +27°C° 0 mm 1 m/s 654 mmHg 58%
    10:00 +29°C° 0 mm 1 m/s 655 mmHg 47%
    11:00 +29°C° 0,5 mm 1 m/s 655 mmHg 50%
    12:00 +29°C° 0,5 mm 1 m/s 654 mmHg 53%
    13:00 +29°C° 0,5 mm 2 m/s 654 mmHg 57%
    14:00 +28°C° 2,2 mm 1 m/s 653 mmHg 64%
    15:00 +26°C° 2,2 mm 1 m/s 652 mmHg 72%
    16:00 +24°C° 2,2 mm 1 m/s 651 mmHg 80%
    17:00 +23°C° 2,7 mm 1 m/s 651 mmHg 83%
    18:00 +22°C° 2,7 mm 1 m/s 651 mmHg 87%
    19:00 +19°C° 2,7 mm 0 m/s 651 mmHg 91%
    20:00 +19°C° 1,4 mm 0 m/s 652 mmHg 92%
    21:00 +19°C° 1,4 mm 0 m/s 652 mmHg 93%
    22:00 +18°C° 1,4 mm 0 m/s 653 mmHg 93%
    23:00 +18°C° 0 mm 0 m/s 652 mmHg 94%

    Poimâine, 25 Mai, Vineri

    Timp Temperatura Precipitaţii Vânt Presiune Umiditate
    00:00 +18°C° 0 mm 0 m/s 652 mmHg 94%
    01:00 +18°C° 0 mm 0 m/s 651 mmHg 94%
    02:00 +18°C° 0 mm 0 m/s 651 mmHg 94%
    03:00 +17°C° 0 mm 0 m/s 651 mmHg 94%
    04:00 +17°C° 0 mm 0 m/s 650 mmHg 94%
    05:00 +18°C° 0 mm 0 m/s 651 mmHg 91%
    06:00 +19°C° 0 mm 0 m/s 652 mmHg 87%
    07:00 +20°C° 0 mm 0 m/s 653 mmHg 84%
    08:00 +22°C° 0,3 mm 0 m/s 654 mmHg 75%
    09:00 +24°C° 0,3 mm 0 m/s 654 mmHg 65%
    10:00 +29°C° 0,3 mm 1 m/s 655 mmHg 56%
    11:00 +29°C° 1,1 mm 1 m/s 655 mmHg 55%
    12:00 +29°C° 1,1 mm 1 m/s 654 mmHg 55%
    13:00 +29°C° 1,1 mm 1 m/s 654 mmHg 55%
    14:00 +28°C° 1,3 mm 1 m/s 653 mmHg 63%
    15:00 +26°C° 1,3 mm 1 m/s 652 mmHg 71%
    16:00 +25°C° 1,3 mm 1 m/s 651 mmHg 79%
    17:00 +23°C° 0,9 mm 1 m/s 651 mmHg 83%
    18:00 +20°C° 0,9 mm 0 m/s 651 mmHg 87%
    19:00 +19°C° 0,9 mm 0 m/s 652 mmHg 92%
    20:00 +19°C° 0 mm 0 m/s 652 mmHg 92%
    21:00 +18°C° 0 mm 0 m/s 652 mmHg 93%
    22:00 +18°C° 0 mm 0 m/s 652 mmHg 94%
    23:00 +18°C° 0 mm 0 m/s 652 mmHg 93%

    26 Mai, Sâmbătă

    Timp Temperatura Precipitaţii Vânt Presiune Umiditate
    00:00 +18°C° 0 mm 0 m/s 652 mmHg 93%
    01:00 +18°C° 0 mm 0 m/s 651 mmHg 93%
    02:00 +18°C° 0 mm 0 m/s 651 mmHg 93%
    03:00 +18°C° 0 mm 0 m/s 651 mmHg 92%
    04:00 +18°C° 0 mm 0 m/s 651 mmHg 92%
    05:00 +19°C° 0 mm 0 m/s 652 mmHg 88%
    06:00 +19°C° 0 mm 0 m/s 652 mmHg 85%
    07:00 +20°C° 0 mm 0 m/s 653 mmHg 82%
    08:00 +23°C° 0 mm 0 m/s 654 mmHg 72%
    09:00 +25°C° 0 mm 0 m/s 655 mmHg 62%
    10:00 +30°C° 0 mm 1 m/s 655 mmHg 52%
    11:00 +30°C° 0,9 mm 1 m/s 655 mmHg 54%
    12:00 +30°C° 0,9 mm 1 m/s 654 mmHg 55%
    13:00 +30°C° 0,9 mm 1 m/s 654 mmHg 56%
    14:00 +29°C° 1,7 mm 1 m/s 653 mmHg 63%
    15:00 +27°C° 1,7 mm 1 m/s 652 mmHg 71%
    16:00 +26°C° 1,7 mm 1 m/s 652 mmHg 78%
    17:00 +24°C° 0,7 mm 1 m/s 652 mmHg 82%
    18:00 +23°C° 0,7 mm 1 m/s 652 mmHg 87%
    19:00 +22°C° 0,7 mm 1 m/s 652 mmHg 91%
    20:00 +20°C° 0,1 mm 0 m/s 652 mmHg 92%
    21:00 +19°C° 0,1 mm 0 m/s 652 mmHg 94%
    22:00 +19°C° 0,1 mm 0 m/s 653 mmHg 95%
    23:00 +19°C° 0 mm 0 m/s 652 mmHg 95%

    27 Mai, Duminică

    Timp Temperatura Precipitaţii Vânt Presiune Umiditate
    00:00 +19°C° 0 mm 0 m/s 652 mmHg 94%
    01:00 +19°C° 0 mm 0 m/s 652 mmHg 94%
    02:00 +18°C° 0 mm 0 m/s 652 mmHg 94%
    03:00 +18°C° 0 mm 0 m/s 651 mmHg 94%
    04:00 +18°C° 0 mm 0 m/s 651 mmHg 94%
    05:00 +19°C° 0 mm 0 m/s 652 mmHg 91%
    06:00 +20°C° 0 mm 0 m/s 653 mmHg 88%
    07:00 +21°C° 0 mm 0 m/s 654 mmHg 85%
    08:00 +23°C° 0,1 mm 0 m/s 654 mmHg 74%
    09:00 +28°C° 0,1 mm 1 m/s 655 mmHg 64%
    10:00 +30°C° 0,1 mm 1 m/s 656 mmHg 53%
    11:00 +30°C° 1,5 mm 1 m/s 655 mmHg 56%
    12:00 +29°C° 1,5 mm 1 m/s 655 mmHg 60%
    13:00 +29°C° 1,5 mm 1 m/s 654 mmHg 63%
    14:00 +28°C° 2,4 mm 1 m/s 653 mmHg 70%
    15:00 +26°C° 2,4 mm 1 m/s 653 mmHg 77%
    16:00 +25°C° 2,4 mm 1 m/s 652 mmHg 84%
    17:00 +24°C° 0,7 mm 1 m/s 652 mmHg 87%
    18:00 +21°C° 0,7 mm 0 m/s 652 mmHg 90%
    19:00 +20°C° 0,7 mm 0 m/s 652 mmHg 93%
    20:00 +19°C° 0,9 mm 0 m/s 652 mmHg 94%
    21:00 +19°C° 0,9 mm 0 m/s 653 mmHg 94%
    22:00 +19°C° 0,9 mm 0 m/s 653 mmHg 95%
    23:00 +19°C° 0,3 mm 0 m/s 652 mmHg 95%

    28 Mai, Luni

    Timp Temperatura Precipitaţii Vânt Presiune Umiditate
    00:00 +19°C° 0,3 mm 0 m/s 652 mmHg 95%
    01:00 +18°C° 0,3 mm 0 m/s 652 mmHg 95%
    02:00 +18°C° 0,3 mm 0 m/s 652 mmHg 95%
    03:00 +18°C° 0,3 mm 0 m/s 652 mmHg 94%
    04:00 +18°C° 0,3 mm 0 m/s 652 mmHg 94%
    05:00 +19°C° 0,2 mm 0 m/s 652 mmHg 91%
    06:00 +20°C° 0,2 mm 0 m/s 653 mmHg 87%
    07:00 +21°C° 0,2 mm 0 m/s 653 mmHg 84%
    08:00 +23°C° 0 mm 0 m/s 654 mmHg 73%
    09:00 +28°C° 0 mm 1 m/s 655 mmHg 62%
    10:00 +30°C° 0 mm 1 m/s 656 mmHg 51%
    11:00 +30°C° 1,3 mm 1 m/s 655 mmHg 54%
    12:00 +29°C° 1,3 mm 1 m/s 655 mmHg 58%
    13:00 +29°C° 1,3 mm 1 m/s 654 mmHg 62%
    14:00 +27°C° 2,5 mm 1 m/s 653 mmHg 70%
    15:00 +26°C° 2,5 mm 1 m/s 653 mmHg 77%
    16:00 +25°C° 2,5 mm 1 m/s 652 mmHg 85%
    17:00 +22°C° 1,4 mm 0 m/s 652 mmHg 88%
    18:00 +20°C° 1,4 mm 0 m/s 652 mmHg 91%
    19:00 +19°C° 1,4 mm 0 m/s 652 mmHg 94%
    20:00 +19°C° 0,4 mm 0 m/s 652 mmHg 95%
    21:00 +19°C° 0,4 mm 0 m/s 652 mmHg 95%
    22:00 +19°C° 0,4 mm 0 m/s 653 mmHg 96%
    23:00 +18°C° 0,5 mm 0 m/s 652 mmHg 95%
    Arată mai mult